Weather History for Lewisburg, WV

Change the Weather History Date:

Friday, May 24, 2013

  Actual Average Record
Temperature  
Mean Temperature 48 °F 61 °F  
Max Temperature 55 °F 73 °F 83 °F (1995)
Min Temperature 41 °F 48 °F 34 °F (2006)
Degree Days  
Heating Degree Days 17    
Month to date heating degree days  
Cooling Degree Days 0    
Month to date cooling degree days  
Year to date cooling degree days  
Moisture  
Dew Point 35 °F    
Average Humidity 65    
Maximum Humidity 88    
Minimum Humidity 40    
Precipitation  
Precipitation 0.00 in 0.14 in 0.41 in (2012)
Month to date precipitation 3.35  
Year to date precipitation 16.22  
Snow  
Snow 0.00 in - - ()
Month to date snowfall  
Snow Depth -    
Sea Level Pressure  
Sea Level Pressure 30.11 in    
Wind  
Wind Speed 7 mph (NW)    
Max Wind Speed 18 mph    
Max Gust Speed 25 mph    
Visibility 10 miles    
Events Rain    
T = Trace of Precipitation, MM = Missing Value Source: NWS Daily Summary

Daily Weather History Graph

Daily Weather History Graph

Search for Another Location

Airport:

Trip Planner

Search our weather history database for the weather conditions in past years. The results will help you decide how hot, cold, wet, or windy it might be!

Date:

Astronomy

May. 24, 2013 Rise Set
Actual Time 6:04 AM EDT 8:32 PM EDT
Civil Twilight 5:34 AM EDT 9:02 PM EDT
Nautical Twilight 4:57 AM EDT 9:40 PM EDT
Astronomical Twilight 4:16 AM EDT 10:21 PM EDT
Moon 8:13 PM EDT (5/24) 5:34 AM EDT (5/24)
Length of Visible Light 15h 28m
Length of Day
14h 27m
Full, 100% of the Moon is Illuminated
May 24
Full
May 25
Full
May 31
Last Quarter
Jun 8
New
Jun 16
First Quarter

Hourly Weather History & Observations

Time (EDT) Temp. Windchill Dew Point Humidity Pressure Visibility Wind Dir Wind Speed Gust Speed Precip Events Conditions
12:15 AM 55.4 °F - 46.4 °F 72% 29.95 in 10.0 mi West 3.5 mph - N/A   Overcast
12:35 AM 55.4 °F - 46.4 °F 72% 29.95 in 10.0 mi West 4.6 mph - N/A   Overcast
12:55 AM 55.4 °F - 46.4 °F 72% 29.95 in 10.0 mi WNW 5.8 mph - N/A   Overcast
1:15 AM 55.4 °F - 46.4 °F 72% 29.95 in 10.0 mi NW 3.5 mph - N/A   Overcast
1:35 AM 55.4 °F - 46.4 °F 72% 29.94 in 10.0 mi WNW 4.6 mph - N/A   Overcast
1:55 AM 55.4 °F - 46.4 °F 72% 29.94 in 10.0 mi Calm Calm - N/A   Overcast
2:15 AM 53.6 °F - 46.4 °F 77% 29.94 in 10.0 mi Calm Calm - N/A   Overcast
2:35 AM 53.6 °F - 46.4 °F 77% 29.94 in 10.0 mi Calm Calm - N/A   Drizzle
2:55 AM 53.6 °F - 46.4 °F 77% 29.93 in 10.0 mi Calm Calm - N/A   Light Drizzle
3:15 AM 53.6 °F - 46.4 °F 77% 29.92 in 10.0 mi West 3.5 mph - N/A   Overcast
3:35 AM 53.6 °F - 46.4 °F 77% 29.92 in 10.0 mi West 4.6 mph - N/A Rain Rain
3:55 AM 51.8 °F - 48.2 °F 88% 29.92 in 10.0 mi WNW 4.6 mph - N/A   Overcast
4:15 AM 51.8 °F - 48.2 °F 88% 29.93 in 10.0 mi North 3.5 mph - N/A   Overcast
4:35 AM 51.8 °F - 46.4 °F 82% 29.94 in 10.0 mi NNW 4.6 mph - N/A   Overcast
4:55 AM 51.8 °F - 44.6 °F 76% 29.95 in 10.0 mi NNW 11.5 mph 19.6 mph N/A   Light Drizzle
5:15 AM 48.2 °F - 42.8 °F 82% 29.97 in 10.0 mi NNW 8.1 mph - N/A   Overcast
5:35 AM 46.4 °F 41.9 °F 39.2 °F 76% 29.97 in 10.0 mi NNW 9.2 mph 20.7 mph N/A   Overcast
5:55 AM 44.6 °F 39.7 °F 39.2 °F 81% 29.99 in 10.0 mi NNW 9.2 mph 18.4 mph N/A   Overcast
6:15 AM 44.6 °F 39.7 °F 37.4 °F 76% 30.00 in 10.0 mi North 9.2 mph - N/A   Overcast
6:35 AM 42.8 °F 37.0 °F 37.4 °F 81% 30.02 in 10.0 mi NNW 10.4 mph 16.1 mph N/A   Overcast
6:55 AM 42.8 °F 36.6 °F 35.6 °F 76% 30.03 in 10.0 mi NNW 11.5 mph 17.3 mph N/A   Overcast
7:15 AM 42.8 °F 37.5 °F 35.6 °F 76% 30.04 in 10.0 mi North 9.2 mph - N/A   Overcast
7:35 AM 42.8 °F 37.0 °F 33.8 °F 70% 30.06 in 10.0 mi NNW 10.4 mph 16.1 mph N/A   Overcast
7:55 AM 41.0 °F 34.7 °F 33.8 °F 76% 30.07 in 10.0 mi North 10.4 mph 20.7 mph N/A   Overcast
8:15 AM 41.0 °F 34.3 °F 33.8 °F 76% 30.08 in 10.0 mi NW 11.5 mph 17.3 mph N/A   Overcast
8:35 AM 42.8 °F 35.8 °F 33.8 °F 70% 30.08 in 10.0 mi NNW 13.8 mph 18.4 mph N/A   Overcast
8:55 AM 42.8 °F 36.2 °F 33.8 °F 70% 30.09 in 10.0 mi NNW 12.7 mph 17.3 mph N/A   Overcast
9:15 AM 41.0 °F 33.1 °F 33.8 °F 76% 30.10 in 10.0 mi NW 15.0 mph 21.9 mph N/A   Overcast
9:35 AM 41.0 °F 33.9 °F 33.8 °F 76% 30.11 in 10.0 mi NW 12.7 mph 18.4 mph N/A   Overcast
9:55 AM 41.0 °F 35.8 °F 33.8 °F 76% 30.12 in 10.0 mi NNW 8.1 mph - N/A   Overcast
10:15 AM 41.0 °F 34.3 °F 33.8 °F 76% 30.12 in 10.0 mi NW 11.5 mph 16.1 mph N/A   Overcast
10:35 AM 41.0 °F 34.7 °F 33.8 °F 76% 30.13 in 10.0 mi NNW 10.4 mph 17.3 mph N/A   Overcast
10:55 AM 41.0 °F 35.2 °F 33.8 °F 76% 30.14 in 10.0 mi NNW 9.2 mph 20.7 mph N/A   Overcast
11:15 AM 41.0 °F 34.7 °F 33.8 °F 76% 30.15 in 10.0 mi NNW 10.4 mph 19.6 mph N/A   Overcast
11:35 AM 42.8 °F 36.2 °F 33.8 °F 70% 30.15 in 10.0 mi NNW 12.7 mph 17.3 mph N/A   Overcast
11:55 AM 42.8 °F 36.2 °F 33.8 °F 70% 30.16 in 10.0 mi North 12.7 mph 18.4 mph N/A   Overcast
12:15 PM 41.0 °F 34.3 °F 33.8 °F 76% 30.18 in 10.0 mi NW 11.5 mph 16.1 mph N/A   Overcast
12:35 PM 42.8 °F 37.5 °F 33.8 °F 70% 30.18 in 10.0 mi NNW 9.2 mph - N/A   Overcast
12:55 PM 42.8 °F 37.0 °F 32.0 °F 66% 30.19 in 10.0 mi North 10.4 mph 18.4 mph N/A   Overcast
1:15 PM 44.6 °F 37.8 °F 32.0 °F 61% 30.19 in 10.0 mi NW 15.0 mph 20.7 mph N/A   Overcast
1:35 PM 44.6 °F 39.2 °F 30.2 °F 57% 30.19 in 10.0 mi NNW 10.4 mph 25.3 mph N/A   Overcast
1:55 PM 46.4 °F 41.1 °F 30.2 °F 53% 30.19 in 10.0 mi NW 11.5 mph 17.3 mph N/A   Overcast
2:15 PM 46.4 °F 40.1 °F 30.2 °F 53% 30.19 in 10.0 mi North 15.0 mph 24.2 mph N/A   Mostly Cloudy
2:35 PM 46.4 °F 40.4 °F 28.4 °F 50% 30.19 in 10.0 mi NW 13.8 mph 23.0 mph N/A   Scattered Clouds
2:55 PM 46.4 °F 41.1 °F 30.2 °F 53% 30.19 in 10.0 mi NNW 11.5 mph 18.4 mph N/A   Mostly Cloudy
3:15 PM 46.4 °F 40.7 °F 26.6 °F 46% 30.19 in 10.0 mi NNW 12.7 mph 19.6 mph N/A   Scattered Clouds
3:35 PM 48.2 °F - 28.4 °F 46% 30.19 in 10.0 mi North 11.5 mph 24.2 mph N/A   Mostly Cloudy
3:55 PM 50.0 °F - 28.4 °F 43% 30.19 in 10.0 mi WNW 11.5 mph 23.0 mph N/A   Mostly Cloudy
4:15 PM 50.0 °F - 28.4 °F 43% 30.19 in 10.0 mi NNW 13.8 mph 24.2 mph N/A   Mostly Cloudy
4:35 PM 50.0 °F - 26.6 °F 40% 30.19 in 10.0 mi NNW 18.4 mph 25.3 mph N/A   Scattered Clouds
4:55 PM 50.0 °F - 26.6 °F 40% 30.19 in 10.0 mi NW 11.5 mph 21.9 mph N/A   Scattered Clouds
5:15 PM 50.0 °F - 28.4 °F 43% 30.20 in 10.0 mi North 10.4 mph 19.6 mph N/A   Scattered Clouds
5:35 PM 50.0 °F - 26.6 °F 40% 30.20 in 10.0 mi NNW 12.7 mph 19.6 mph N/A   Scattered Clouds
5:55 PM 48.2 °F - 26.6 °F 43% 30.21 in 10.0 mi North 10.4 mph 20.7 mph N/A   Scattered Clouds
6:15 PM 50.0 °F - 26.6 °F 40% 30.21 in 10.0 mi NW 10.4 mph 19.6 mph N/A   Scattered Clouds
6:35 PM 46.4 °F 42.9 °F 26.6 °F 46% 30.21 in 10.0 mi NW 6.9 mph - N/A   Scattered Clouds
6:55 PM 46.4 °F 41.9 °F 26.6 °F 46% 30.22 in 10.0 mi NNW 9.2 mph - N/A   Scattered Clouds
7:15 PM 46.4 °F 40.7 °F 26.6 °F 46% 30.22 in 10.0 mi NW 12.7 mph 18.4 mph N/A   Mostly Cloudy
7:35 PM 46.4 °F 42.9 °F 28.4 °F 50% 30.22 in 10.0 mi West 6.9 mph - N/A   Overcast
7:55 PM 44.6 °F 40.7 °F 28.4 °F 53% 30.23 in 10.0 mi NW 6.9 mph - N/A   Overcast
8:15 PM 44.6 °F 39.7 °F 28.4 °F 53% 30.24 in 10.0 mi NW 9.2 mph - N/A   Overcast
8:35 PM 44.6 °F 41.4 °F 28.4 °F 53% 30.23 in 10.0 mi NW 5.8 mph - N/A   Overcast
8:55 PM 44.6 °F - 30.2 °F 57% 30.23 in 10.0 mi Calm Calm - N/A   Mostly Cloudy
9:15 PM 44.6 °F 43.1 °F 30.2 °F 57% 30.23 in 10.0 mi NW 3.5 mph - N/A   Mostly Cloudy
9:35 PM 44.6 °F 41.4 °F 30.2 °F 57% 30.23 in 10.0 mi NW 5.8 mph - N/A   Scattered Clouds
9:55 PM 42.8 °F 39.3 °F 30.2 °F 61% 30.23 in 10.0 mi NW 5.8 mph - N/A   Scattered Clouds
10:15 PM 42.8 °F 40.1 °F 30.2 °F 61% 30.24 in 10.0 mi NNW 4.6 mph - N/A   Clear
10:35 PM 42.8 °F 38.0 °F 30.2 °F 61% 30.24 in 10.0 mi NNW 8.1 mph - N/A   Clear
10:55 PM 42.8 °F 37.0 °F 30.2 °F 61% 30.24 in 10.0 mi NNW 10.4 mph - N/A   Clear
11:15 PM 42.8 °F 37.5 °F 30.2 °F 61% 30.24 in 10.0 mi NNW 9.2 mph - N/A   Clear
11:35 PM 42.8 °F 37.5 °F 30.2 °F 61% 30.24 in 10.0 mi North 9.2 mph - N/A   Clear
11:55 PM 41.0 °F 38.0 °F 30.2 °F 65% 30.24 in 10.0 mi NNW 4.6 mph - N/A   Clear